Notices

What's New in latest Release from April 7th, 2021:

- Updated Glossary, including Speed of Maximum Gust, and Total Hourly Precipitation

- Updated national and regional climate services offices contacts and prices information

- Addition of station inventory lists for 1981-2010, 1971-2000, and 1961-1990 Normals.

If you haven't already, please take our survey and provide feedback about our website: https://eccc.sondage-survey.ca/f/LanguageSelection.aspx?s=442ca660-fcf1-47c0-95a9-59707d6fd709

Hourly Data Report for July 26, 2020

TORONTO CITY
ONTARIO
Current Station Operator: ECCC - MSC

43°40'00.000" N
79°24'00.000" W
112.50 m
6158355
71508
XTO

Download Data

Hourly Data (July 2020)
Hourly Data Report for July 26, 2020
TIME
LST
Temp Definition
°C
Dew Point Definition
°C
Rel Hum Definition
%
Precip. Amount Definition
mm

Wind Dir Definition
10's deg

Wind Spd Definition
km/h
Visibility Definition
km
Stn Press Definition
kPa
Hmdx Definition


Wind Chill Definition


Weather Definition


00:00 22.1 11.0 49 0.0       100.42     LegendNANA
01:00 21.3 11.6 54 0.0       100.37     LegendNANA
02:00 21.5 14.3 64 0.0       100.32 25   LegendNANA
03:00 21.9 15.8 68 0.0       100.31 26   LegendNANA
04:00 22.0 14.9 64 0.0       100.26 26   LegendNANA
05:00 21.8 14.7 64 0.0       100.30 26   LegendNANA
06:00 22.0 15.3 66 0.0       100.29 26   LegendNANA
07:00 23.2 16.0 64 0.0       100.28 28   LegendNANA
08:00 25.8 16.6 57 0.0       100.25 31   LegendNANA
09:00 28.3 17.1 51 0.0       100.19 34   LegendNANA
10:00 28.6 17.6 51 0.0       100.17 34   LegendNANA
11:00 31.5 17.0 42 0.0       100.14 37   LegendNANA
12:00 32.2 16.2 38 0.0       100.10 37   LegendNANA
13:00 32.2 16.8 40 0.0       100.06 37   LegendNANA
14:00 33.2 16.6 37 0.0       100.00 38   LegendNANA
15:00 33.3 16.0 35 0.2       99.99 38   LegendNANA
16:00 33.8 16.5 36 0.3       99.92 39   LegendNANA
17:00 32.0 16.0 38 0.0       99.88 37   LegendNANA
18:00 30.6 17.2 45 0.0       99.81 36   LegendNANA
19:00 28.9 17.8 51 0.0       99.74 35   LegendNANA
20:00 27.0 18.3 59 0.2       99.75 33   LegendNANA
21:00 27.6 17.7 55 0.0       99.83 33   LegendNANA
22:00 27.6 17.3 53 0.0       99.83 33   LegendNANA
23:00 27.0 17.5 56 0.0       99.79 33   LegendNANA

Notes on Data Quality.

Legend

  • E = Estimated
  • M = Missing
  • NA = Not Available*
  • [empty] = Indicates an unobserved value
Date modified: